Location: Chamborigaud
(44.3057°N, 3.9714°E)
Time: 03:16:15
(UTC+00:00)

Daily predictions for brighter satellites

Satellite Brightness Start Highest point End
(mag) Time Altitude Azimuth Time Altitude Azimuth Time Altitude Azimuth
Meteor 1-11 Rocket 4.3 00:01:32 10° N 00:06:15 59° N 00:06:15 59° N
Cosmos 1844 Rocket 3.7 00:12:33 41° NW 00:12:33 41° NW 00:17:06 10° NNE
Resurs 1-4 Rocket 4.1 00:08:37 10° NE 00:11:25 18° E 00:11:25 18° E
CZ-4C R/B 3.8 00:23:04 10° NNW 00:29:50 45° NE 00:37:40 10° ESE
NOSS 3-3 (A) 4.4 00:35:03 51° ENE 00:35:03 51° ENE 00:40:13 10° NE
CZ-2D R/B 3.6 00:29:09 10° NE 00:33:21 28° E 00:33:21 28° E
NOSS 3-3 (C) 4.4 00:35:10 51° ENE 00:35:10 51° ENE 00:40:18 10° NE
Cosmos 2082 Rocket 3.5 00:31:27 10° N 00:36:35 35° NE 00:38:00 30° E
SL-16 R/B 3.6 00:36:28 34° E 00:38:06 40° ENE 00:43:54 10° N
Cosmos 1833 Rocket 3.1 00:32:51 10° NNW 00:37:45 58° NNE 00:37:45 58° NNE
ADEOS II 4.3 00:37:58 10° NE 00:40:55 15° E 00:41:22 15° E
SJ 16-02 2.9 00:54:21 34° NNE 00:54:21 34° NNE 00:56:56 10° NNE
Cosmos 1943 Rocket 4.4 00:51:58 13° ESE 00:52:36 14° E 00:55:19 10° ENE
Cosmos 2278 Rocket 2.4 01:01:19 68° NNE 01:01:19 68° NNE 01:06:16 10° NNE
ATLAS 5 CENTAUR R/B 2.6 01:04:09 10° NW 01:08:33 57° NW 01:08:33 57° NW
Cosmos 1680 Rocket 4.0 01:08:49 10° NNW 01:14:03 55° ENE 01:14:21 54° E
Meteor 2-9 Rocket 4.3 01:08:45 10° N 01:14:25 82° NNE 01:14:25 82° NNE
Cosmos 2181 Rocket 4.1 01:16:43 64° WNW 01:16:43 64° WNW 01:22:47 10° N
SL-8 Rocket 4.2 01:12:38 10° NNW 01:18:17 55° WNW 01:18:17 55° WNW
NPP 4.0 01:14:32 10° NNE 01:19:47 58° E 01:19:47 58° E
USA 234 4.2 01:14:16 10° ENE 01:20:03 32° SE 01:20:19 32° SE
Cosmos 2369 Rocket 4.5 01:23:06 11° ESE 01:25:12 13° E 01:27:46 10° ENE
Helios 1B rocket 3.6 01:21:13 10° NNE 01:23:58 41° NNE 01:23:58 41° NNE
USA 281 4.3 01:30:00 28° WNW 01:30:00 28° WNW 01:34:02 10° NW
COSMOS 2406 4.1 01:23:17 10° NW 01:26:56 37° WNW 01:26:56 37° WNW
UNK 4.2 01:31:04 57° N 01:31:04 57° N 01:34:46 10° NNW
Cosmos 990 Rocket 4.0 01:33:48 77° NE 01:33:48 77° NE 01:38:43 10° NNE
Cosmos 1238 Rocket 4.5 01:28:35 10° NNW 01:34:28 47° W 01:34:28 47° W
Cosmos 2297 4.3 01:36:46 43° SE 01:37:26 45° ESE 01:42:51 10° NE
X-37B 3.8 01:41:18 11° E 01:41:18 11° E 01:41:32 10° E
Gbstr 26 Del rocket 4.5 01:36:15 33° WNW 01:38:32 47° NNW 01:43:39 10° ENE
Cosmos 923 Rocket 4.4 01:37:51 10° NNW 01:41:55 51° NW 01:41:55 51° NW
Cosmos 2084 4.1 01:47:50 52° NE 01:47:50 52° NE 01:51:10 10° NE
Cosmos 1937 Rocket 3.5 01:50:18 68° SE 01:50:33 69° ESE 01:55:41 10° NNE
Resurs 1-4 Rocket 2.2 01:47:16 10° N 01:52:27 60° WNW 01:52:30 60° WNW
Cosmos 2242 Rocket 3.9 01:53:19 61° NNW 01:53:19 61° NNW 01:57:02 10° N
Cosmos 858 Rocket 4.4 01:54:31 69° SE 01:54:55 73° ESE 02:00:07 10° NNE
Cosmos 2239 Rocket 4.4 01:50:42 10° N 01:56:57 86° E 01:59:00 46° SSE
DELTA 2 DEB (DPAF) 4.2 01:57:25 74° E 01:57:31 75° ENE 02:01:59 10° N
Cosmos 1898 Rocket 3.4 01:59:46 70° W 02:00:04 72° WNW 02:05:23 10° NNE
Cosmos 1908 Rocket 4.4 01:56:01 10° NNW 01:59:09 40° NW 01:59:09 40° NW
ARIANE 5 R/B 4.3 01:58:19 10° NE 02:02:38 26° E 02:05:54 14° SE
Cosmos 372 Rocket 4.5 02:05:10 43° SSE 02:06:18 52° ESE 02:11:16 10° NNE
Cosmos 1821 Rocket 4.1 02:07:27 10° NNW 02:13:42 60° W 02:15:08 48° SW
CZ-2D R/B 2.7 02:08:54 10° N 02:14:02 42° WNW 02:14:41 40° W
CZ-4C R/B 3.8 02:13:25 44° SE 02:14:40 68° ENE 02:19:04 10° N
Okean 3 3.3 02:15:08 82° SSE 02:15:18 86° E 02:19:38 10° N
NOSS 3-4 (A) 3.8 02:09:57 10° NW 02:17:02 83° SW 02:24:55 10° SSE
NOSS 3-4 (C) 3.8 02:10:04 10° NW 02:17:09 83° SW 02:25:02 10° SSE
Meteor 2-4 Rocket 4.1 02:16:42 45° WSW 02:17:38 49° WNW 02:23:20 10° N
CZ-4C R/B 3.1 02:11:30 10° NW 02:18:45 55° WSW 02:26:57 10° SSE
Cosmos 1805 4.2 02:15:00 10° N 02:18:46 45° ENE 02:20:14 30° SE
Cosmos 2082 Rocket 2.9 02:15:32 10° NW 02:19:47 36° W 02:19:47 36° W
CBERS-1 4.0 02:15:35 10° NNE 02:20:43 78° ESE 02:22:12 47° S
ADEOS II 2.0 02:15:54 10° N 02:21:10 74° WNW 02:22:19 54° SW
SL-16 R/B 3.1 02:21:33 37° W 02:21:42 37° W 02:27:27 10° NNW
Cosmos 2112 Rocket 4.4 02:17:29 10° NNW 02:22:16 45° W 02:22:16 45° W
Meteor 1-13 Rocket 4.2 02:23:26 46° SSW 02:25:12 79° W 02:30:54 10° N
Cosmos 1703 Rocket 4.4 02:26:18 35° WNW 02:26:18 35° WNW 02:29:57 10° N
Meteor 1-28 Rocket 3.1 02:26:38 72° NW 02:26:38 72° NW 02:30:02 10° NNW
Cosmos 1782 Rocket 3.9 02:25:08 10° NNW 02:29:10 47° W 02:29:10 47° W
SL-4 R/B 4.4 02:34:17 15° SSE 02:34:17 15° SSE 02:35:07 10° SSE
Cosmos 1300 Rocket 3.7 02:26:34 10° N 02:31:02 74° E 02:33:04 32° SSE
ATLAS 2AS CENTAUR R/B 2.8 02:23:59 10° NW 02:31:23 79° NE 02:38:11 10° SE
SJ 16-02 3.7 02:31:19 12° WNW 02:31:42 12° NW 02:33:22 10° NNW
Cosmos 1535 Rocket 4.4 02:25:45 10° N 02:31:54 84° W 02:35:51 24° S
IRS-1D 3.6 02:28:10 10° N 02:33:21 68° WNW 02:34:54 45° SW
ADEOS Rocket 3.2 02:28:40 17° SSE 02:33:53 84° WSW 02:41:10 10° NNW
Okean 1-7 4.1 02:35:30 29° WNW 02:35:30 29° WNW 02:38:57 10° NNW
Cosmos 1943 Rocket 2.1 02:33:30 42° SSW 02:35:32 87° WNW 02:41:13 10° NNE
Nadezhda 3 Rocket 4.5 02:34:16 36° WSW 02:36:01 44° WNW 02:42:02 10° N
CZ-4B R/B 3.9 02:31:24 10° NNE 02:36:06 54° ESE 02:38:45 25° S
Cosmos 2151 Rocket 4.2 02:35:05 10° N 02:39:33 56° ENE 02:43:56 10° SSE
IDEFIX/ARIANE 42P 2.5 02:35:24 10° NNE 02:40:40 85° ESE 02:43:11 32° S
Meteor 1-12 Rocket 4.4 02:35:26 10° NNW 02:41:19 57° W 02:43:56 32° SSW
Okean 2 Rocket 3.1 02:39:02 10° N 02:43:30 81° E 02:46:13 23° SSE
Cosmos 2278 Rocket 4.0 02:43:09 15° WNW 02:45:26 18° NW 02:49:16 10° N
Cosmos 1934 Rocket 4.1 02:43:14 10° NNW 02:49:22 56° W 02:52:44 26° SSW
USA 81 4.1 02:47:41 10° NNW 02:52:53 61° W 02:55:35 28° SSW
Cosmos 2221 Rocket 3.5 02:51:52 36° SSW 02:53:40 77° W 02:58:14 10° N
Cosmos 44 4.3 02:50:21 10° NNW 02:55:44 55° NE 03:00:55 10° SE
CZ-2C R/B 4.0 02:52:48 10° NNE 02:57:09 32° E 03:01:35 10° SSE
Cosmos 1066 Rocket 4.5 02:56:04 30° SW 02:58:50 56° WNW 03:04:36 10° N
Cosmos 1842 3.9 02:56:24 19° SSE 02:58:58 53° E 03:02:45 10° NNE
Cosmos 1900 4.4 02:56:49 29° SSW 02:59:25 77° ESE 03:04:31 10° NE
Cosmos 2150 Rocket 4.3 02:56:23 21° S 03:00:03 70° ESE 03:05:28 10° NNE
Cosmos 1356 Rocket 3.7 02:56:25 10° NNW 03:00:23 44° W 03:01:22 37° SW
Okean 1 Rocket 4.2 02:57:41 10° N 03:02:01 46° ENE 03:06:16 10° SSE
USA 234 3.3 02:56:52 10° NE 03:03:26 78° NW 03:07:40 24° WSW
ERS-1 4.4 02:59:54 10° NNE 03:04:55 89° ESE 03:08:29 20° SSW
MSX 3.8 03:00:38 10° NNE 03:06:25 82° WNW 03:10:44 19° SSW
DELTA 2 R/B (1) 3.9 03:05:23 27° WSW 03:07:49 43° SSW 03:13:04 10° SE
Cosmos 2369 Rocket 2.1 03:04:53 24° SSW 03:08:22 88° WNW 03:14:02 10° NNE
X-37B 0.7 03:13:35 30° WNW 03:15:00 76° N 03:18:12 10° E
Cosmos 1605 Rocket 4.1 03:11:06 10° NNW 03:17:03 54° W 03:23:01 10° SSW
Meteor 1-15 Rocket 4.5 03:11:54 10° NNW 03:17:12 46° W 03:21:54 13° SSW
Cosmos 1378 Rocket 3.5 03:14:50 15° S 03:18:29 88° E 03:22:54 10° N
IRS-1C 4.3 03:13:59 10° N 03:19:13 56° WNW 03:22:51 20° SW
USA 307 4.3 03:16:38 10° NW 03:20:43 41° NNE 03:24:48 10° E
Cosmos 1048 Rocket 4.0 03:19:17 10° NNW 03:24:39 70° WSW 03:29:55 10° S
CZ-2C R/B 3.3 03:22:22 10° NNE 03:26:08 57° E 03:29:57 10° S
Cosmos 1818 3.6 03:26:09 10° NW 03:31:40 85° NE 03:37:08 10° SE
USA 308 4.0 03:29:26 10° NW 03:33:35 47° NNE 03:37:44 10° ESE
Cosmos 1674 Rocket 3.7 03:30:29 17° SSW 03:33:44 53° WNW 03:38:04 10° N
Cosmos 1733 4.2 03:30:46 10° NNW 03:33:58 26° W 03:35:27 20° SW
Cosmos 1656 Rocket 3.6 03:31:08 14° SSW 03:35:53 84° WNW 03:41:24 10° NNE
Cosmos 1766 4.1 03:33:02 10° NNW 03:36:34 30° W 03:39:06 16° SW
Cosmos 2100 Rocket 4.0 03:31:40 10° N 03:37:54 89° E 03:44:09 10° S
Okean 2 3.4 03:35:29 10° SSW 03:39:35 71° W 03:43:46 10° N
Meteor 2-10 4.1 03:35:15 10° NNW 03:40:56 77° W 03:46:26 10° S
Cosmos 494 Rocket 3.9 03:36:07 10° NNW 03:41:20 68° WSW 03:46:28 10° S
ARIANE 5 R/B 3.0 03:36:56 10° N 03:41:53 44° WNW 03:46:15 13° SW
SL-08 R/B 3.9 03:38:30 10° SSW 03:43:00 37° W 03:47:28 10° NNW
Cosmos 2173 Rocket 4.0 03:38:07 10° N 03:44:14 88° W 03:50:22 10° S
Cosmos 1758 3.6 03:41:17 10° N 03:45:22 72° E 03:49:27 10° SSE
PAYLOAD A 3.9 03:44:05 10° N 03:49:10 77° WNW 03:54:00 10° SSW
Cosmos 2061 Rocket 4.5 03:44:01 10° N 03:50:12 66° E 03:56:27 10° SSE
ATLAS CENTAUR R/B 3.8 03:48:44 10° SSE 03:50:49 15° ESE 03:52:55 10° ENE
SL-24 R/B - RUBIN 2 4.1 03:45:55 10° NW 03:51:07 48° WSW 03:55:43 10° S
Cosmos 2123 Rocket 4.4 03:48:45 10° S 03:54:51 68° E 04:00:59 10° NNE
Cosmos 1459 Rocket 4.0 03:48:30 10° N 03:54:53 76° W 04:01:10 10° S
CZ-2D R/B 4.2 03:51:15 10° N 03:55:03 35° WNW 03:58:55 10° SW
Spot 4 Rocket 4.4 03:53:38 10° N 03:58:36 49° WNW 04:03:32 10° SW
Cosmos 1726 2.2 03:55:24 10° NNW 03:59:04 58° W 04:02:44 10° S
PSLV R/B 3.6 03:55:38 10° NNE 03:59:52 82° E 04:04:04 10° SSW
ADEOS II 4.1 03:58:17 10° NW 03:59:55 11° NW 04:01:33 10° WNW
Cosmos 1727 Rocket 4.5 03:54:51 10° SW 04:00:42 42° WNW 04:06:39 10° N
GRACE-FO 1 4.5 03:57:18 10° N 04:00:56 81° W 04:04:30 10° S
Cosmos 1461 3.2 03:56:29 10° SSW 04:01:13 86° ESE 04:05:55 10° NE
GRACE-FO 2 4.5 03:57:43 10° N 04:01:21 80° W 04:04:56 10° S
Cosmos 1455 Rocket 3.6 03:57:39 10° N 04:01:58 62° E 04:06:14 10° SSE
Cosmos 1470 3.1 03:59:27 10° NNW 04:03:08 43° W 04:06:48 10° SSW
Milstar 3 4.5 03:58:20 10° WSW 04:04:26 26° S 04:13:27 10° SE
Cosmos 1315 Rocket 3.4 04:01:35 10° N 04:05:29 61° ENE 04:09:21 10° SSE
SL-24 R/B 3.7 04:01:43 10° S 04:05:39 83° WSW 04:09:21 10° NNW
GP-B 3.4 04:04:48 10° N 04:09:04 48° W 04:13:19 10° SSW
Cosmos 1707 3.0 04:07:05 10° SSW 04:10:50 50° WNW 04:14:36 10° N
ALOS 2.3 04:11:29 10° N 04:16:10 80° WNW 04:20:50 10° SSW
Cosmos 1867 3.7 04:11:24 10° SSW 04:16:50 84° ESE 04:22:20 10° NE
Cosmos 1125 Rocket 4.4 04:14:11 10° SW 04:18:57 34° WNW 04:23:44 10° N
IDEFIX/ARIANE 42P 4.4 04:16:44 10° NNW 04:19:33 15° WNW 04:22:22 10° W
Cosmos 1943 Rocket 4.0 04:16:28 10° W 04:20:07 17° NW 04:23:46 10° N
ATLAS 2AS CENTAUR R/B 3.7 04:16:11 10° WNW 04:21:27 22° WSW 04:26:26 10° SSW
